User: anonymous   Login
Location: Unspecified
(0.0000°N, 0.0000°E)
Time: 21:07:52
(UTC+00:00)
Language:

HORYU 4 - Orbit

View from above orbital plane
View from above orbital plane
View from above satellite
View from above satellite

Ground track
Ground track

The orbit data is extracted from the following two-line orbital elements,

1 41340U 16012D   18172.64251694  .00000435  00000-0  26514-4 0  9992
2 41340  31.0052 278.6004 0013907 137.4793 222.6922 15.00996051128569
Epoch (UTC): 21 June 2018 15:25:13
Eccentricity: 0.0013907
inclination: 31.0052°
perigee height: 554 km
apogee height: 573 km
right ascension of ascending node: 278.6004°
argument of perigee: 137.4793°
revolutions per day: 15.00996051
mean anomaly at epoch: 222.6922°
orbit number at epoch: 12856

The dashed part of the orbit path shows where the satellite is in the earth's shadow,  

DLR